Regional Weather Roundup
Issued by NWS Kansas City/Pleasant Hill, MO

Home | Current Version | Previous Version | Graphics & Text | Print | Product List | Glossary Off
Versions: 1 2 3 4 5 6 7 8 9 10 11 12 13 14 15 16 17 18 19 20 21 22 23 24 25 26 27 28 29 30 31 32 33 34 35 36 37 38 39 40 41 42 43 44 45 46 47 48 49 50

000
ASUS43 KEAX 211910
RWREAX

WEATHER ROUNDUP FOR EASTERN KANSAS AND NORTHWEST MISSOURI
NATIONAL WEATHER SERVICE KANSAS CITY/PLEASANT HILL MO
200 PM CDT SUN SEP 21 2014

KSZ040-057-103>105-MOZ028-029-037-043-212000-
...KANSAS CITY METROPOLITAN AREA...

CITY           SKY/WX    TMP DP  RH WIND       PRES   REMARKS
K.C. INTL      MOSUNNY   75  49  39 N13G21    30.17F
K.C. DOWNTOWN  SUNNY     77  48  35 N12G18    30.16S
LEES SUMMIT    SUNNY     75  48  38 N16       30.17F
OLATHE - IXD   SUNNY     75  47  36 NW17      30.17F
OLATHE - OJC   SUNNY     76  47  35 N16G23    30.16F
LAWRENCE       SUNNY     77  47  34 NW17G24   30.18F

$$

MOZ001>008-011>017-020>025-030>033-038>040-044>046-053-054-212000-
...NORTHERN AND CENTRAL MISSOURI...

CITY           SKY/WX    TMP DP  RH WIND       PRES   REMARKS
ST. JOSEPH     SUNNY     75  46  35 N18G25    30.17F
MOSBY          CLEAR     73  45  35 NW14      30.15F
WHITEMAN AFB   SUNNY     76  48  37 NW15G22   30.13F
CLINTON        SUNNY     75  52  43 N14G21    30.14F
SEDALIA        SUNNY     79  46  31 N14G25    30.13F
WARSAW         NOT AVBL
MARSHALL       SUNNY     77  50  38 N14G21    30.14S
CHILLICOTHE      N/A     74  50  42 N10G20    30.15S
MOBERLY        MOSUNNY   75  46  35 NW16G23   30.12F
KIRKSVILLE     MOSUNNY   71  48  43 NW17G23   30.12F

$$

MOZ041-047>049-056>058-063>065-088>090-097-212000-
...EASTERN AND SOUTHERN MISSOURI...

CITY           SKY/WX    TMP DP  RH WIND       PRES   REMARKS
ST. LOUIS INTL MOSUNNY   78  50  37 NW17G31   30.03F
SPIRIT OF STL  SUNNY     77  50  38 NW17G25   30.03F
COLUMBIA       SUNNY     75  49  39 NW18      30.10F
JEFFERSON CITY SUNNY     78  44  29 NW20G28   30.08F
MEXICO         MOSUNNY   77  54  44 NW15G23   30.09F
HANNIBAL       MOSUNNY   73  45  35 NW16G23   30.08S
ROLLA          SUNNY     75  44  33 NW16G25   30.08F HAZE
LEBANON        SUNNY     75  45  33 N9        30.13F
OSAGE BEACH    SUNNY     75  46  35 NW5       30.11F
SPRINGFIELD    SUNNY     77  46  33 N15       30.13F
BRANSON        MOSUNNY   81  50  34 N14       30.12F
NEVADA         SUNNY     77  48  36 N14       30.16F
JOPLIN         SUNNY     77  48  35 N13       30.15F
WEST PLAINS    SUNNY     79  44  28 N9        30.10F

$$

IAZ060-094-KSZ022-034>040-054-083-096-NEZ052-066-093-212000-
...KANSAS...SOUTHEAST NEBRASKA AND IOWA...

CITY           SKY/WX    TMP DP  RH WIND       PRES   REMARKS
TOPEKA         SUNNY     78  46  32 N15G25    30.19F
MANHATTAN      SUNNY     79  43  27 NE12G21   30.21F
EMPORIA        SUNNY     77  47  34 NW14      30.19F
CHANUTE        SUNNY     79  48  33 N8        30.17F
WICHITA        MOSUNNY   84  40  21 N15G24    30.20F
OMAHA          MOSUNNY   71  46  40 N21G29    30.21F
LINCOLN        SUNNY     73  46  38 N17G28    30.24F
FALLS CITY     SUNNY     74  46  36 N16G26    30.19F
LAMONI         MOSUNNY   69  49  48 N12G22    30.16S
DES MOINES     MOSUNNY   71  47  42 N14G24    30.14S

$$



USA.gov is the U.S. government's official web portal to all federal, state and local government web resources and services.